• în România
  • Lista ţărilor
  • Pe 7 zile
  • Temperatura apei
  • Hartă satelitară
  • Meteo pe hartă
  • Widget-uri
  • user-avatar
    Intrare

    Meteo pe oră la Trujillo

    Astăzi, 18 Octombrie, Joi

    Timp Temperatura Precipitaţii Vânt Presiune Umiditate
    00:00 +20°C° 0.1 mm 1 m/s 646 mmHg 86%
    01:00 +19°C° 0.1 mm 1 m/s 646 mmHg 86%
    02:00 +19°C° 0.3 mm 1 m/s 646 mmHg 86%
    03:00 +19°C° 0.3 mm 1 m/s 646 mmHg 86%
    04:00 +19°C° 0.3 mm 1 m/s 645 mmHg 86%
    05:00 +20°C° 0.1 mm 1 m/s 646 mmHg 82%
    06:00 +21°C° 0.1 mm 1 m/s 647 mmHg 79%
    07:00 +20°C° 0.1 mm 0 m/s 647 mmHg 76%
    08:00 +23°C° 0.1 mm 1 m/s 648 mmHg 70%
    09:00 +25°C° 0.1 mm 1 m/s 649 mmHg 64%
    10:00 +27°C° 0.1 mm 1 m/s 649 mmHg 58%
    11:00 +26°C° 0.5 mm 1 m/s 649 mmHg 60%
    12:00 +26°C° 0.5 mm 1 m/s 648 mmHg 62%
    13:00 +26°C° 0.5 mm 1 m/s 647 mmHg 64%
    14:00 +26°C° 0.6 mm 1 m/s 647 mmHg 66%
    15:00 +25°C° 0.6 mm 1 m/s 646 mmHg 69%
    16:00 +24°C° 0.6 mm 1 m/s 646 mmHg 72%
    17:00 +23°C° 1.4 mm 1 m/s 646 mmHg 78%
    18:00 +22°C° 1.4 mm 1 m/s 646 mmHg 84%
    19:00 +19°C° 1.4 mm 0 m/s 646 mmHg 91%
    20:00 +20°C° 1.9 mm 1 m/s 646 mmHg 90%
    21:00 +20°C° 1.9 mm 1 m/s 646 mmHg 90%
    22:00 +20°C° 1.9 mm 1 m/s 647 mmHg 89%
    23:00 +20°C° 2.1 mm 1 m/s 647 mmHg 89%

    Mâine, 19 Octombrie, Vineri

    Timp Temperatura Precipitaţii Vânt Presiune Umiditate
    00:00 +20°C° 2.1 mm 1 m/s 646 mmHg 88%
    01:00 +19°C° 2.1 mm 1 m/s 646 mmHg 88%
    02:00 +19°C° 1 mm 1 m/s 646 mmHg 88%
    03:00 +19°C° 1 mm 1 m/s 646 mmHg 88%
    04:00 +19°C° 1 mm 1 m/s 646 mmHg 88%
    05:00 +17°C° 0.3 mm 0 m/s 646 mmHg 85%
    06:00 +18°C° 0.3 mm 0 m/s 647 mmHg 83%
    07:00 +19°C° 0.3 mm 0 m/s 647 mmHg 81%
    08:00 +22°C° 0.3 mm 1 m/s 648 mmHg 76%
    09:00 +23°C° 0.3 mm 1 m/s 649 mmHg 71%
    10:00 +25°C° 0.3 mm 1 m/s 649 mmHg 66%
    11:00 +25°C° 1 mm 1 m/s 648 mmHg 67%
    12:00 +25°C° 1 mm 1 m/s 648 mmHg 68%
    13:00 +25°C° 1 mm 1 m/s 647 mmHg 69%
    14:00 +24°C° 2.5 mm 1 m/s 646 mmHg 73%
    15:00 +23°C° 2.5 mm 1 m/s 646 mmHg 77%
    16:00 +22°C° 2.5 mm 1 m/s 645 mmHg 81%
    17:00 +22°C° 3 mm 1 m/s 645 mmHg 84%
    18:00 +21°C° 3 mm 1 m/s 646 mmHg 87%
    19:00 +20°C° 3 mm 1 m/s 646 mmHg 90%
    20:00 +20°C° 1.8 mm 1 m/s 646 mmHg 91%
    21:00 +19°C° 1.8 mm 1 m/s 646 mmHg 91%
    22:00 +19°C° 1.8 mm 1 m/s 646 mmHg 91%
    23:00 +19°C° 1.1 mm 1 m/s 646 mmHg 91%

    Poimâine, 20 Octombrie, Sâmbătă

    Timp Temperatura Precipitaţii Vânt Presiune Umiditate
    00:00 +19°C° 1.1 mm 1 m/s 646 mmHg 91%
    01:00 +19°C° 1.1 mm 1 m/s 645 mmHg 91%
    02:00 +19°C° 0.8 mm 1 m/s 645 mmHg 91%
    03:00 +19°C° 0.8 mm 1 m/s 645 mmHg 91%
    04:00 +18°C° 0.8 mm 1 m/s 645 mmHg 91%
    05:00 +17°C° 0.4 mm 0 m/s 646 mmHg 88%
    06:00 +18°C° 0.4 mm 0 m/s 646 mmHg 86%
    07:00 +18°C° 0.4 mm 0 m/s 647 mmHg 84%
    08:00 +22°C° 0.3 mm 1 m/s 647 mmHg 78%
    09:00 +23°C° 0.3 mm 1 m/s 648 mmHg 71%
    10:00 +25°C° 0.3 mm 1 m/s 649 mmHg 65%
    11:00 +25°C° 0.5 mm 1 m/s 648 mmHg 65%
    12:00 +25°C° 0.5 mm 1 m/s 647 mmHg 66%
    13:00 +25°C° 0.5 mm 1 m/s 646 mmHg 66%
    14:00 +24°C° 0.9 mm 1 m/s 646 mmHg 70%
    15:00 +23°C° 0.9 mm 1 m/s 645 mmHg 74%
    16:00 +23°C° 0.9 mm 1 m/s 645 mmHg 78%
    17:00 +22°C° 1 mm 1 m/s 645 mmHg 82%
    18:00 +21°C° 1 mm 1 m/s 645 mmHg 86%
    19:00 +18°C° 1 mm 0 m/s 645 mmHg 90%
    20:00 +18°C° 0.7 mm 0 m/s 646 mmHg 90%
    21:00 +17°C° 0.7 mm 0 m/s 646 mmHg 90%
    22:00 +19°C° 0.7 mm 1 m/s 646 mmHg 90%
    23:00 +19°C° 1.1 mm 1 m/s 646 mmHg 90%

    21 Octombrie, Duminică

    Timp Temperatura Precipitaţii Vânt Presiune Umiditate
    00:00 +19°C° 1.1 mm 1 m/s 645 mmHg 89%
    01:00 +19°C° 1.1 mm 1 m/s 645 mmHg 89%
    02:00 +19°C° 1 mm 1 m/s 645 mmHg 89%
    03:00 +19°C° 1 mm 1 m/s 645 mmHg 89%
    04:00 +18°C° 1 mm 1 m/s 645 mmHg 88%
    05:00 +17°C° 0.4 mm 0 m/s 645 mmHg 86%
    06:00 +18°C° 0.4 mm 0 m/s 646 mmHg 84%
    07:00 +18°C° 0.4 mm 0 m/s 647 mmHg 81%
    08:00 +22°C° 0.4 mm 1 m/s 647 mmHg 75%
    09:00 +23°C° 0.4 mm 1 m/s 648 mmHg 70%
    10:00 +24°C° 0.4 mm 1 m/s 648 mmHg 64%
    11:00 +25°C° 0.3 mm 1 m/s 648 mmHg 63%
    12:00 +25°C° 0.3 mm 1 m/s 647 mmHg 63%
    13:00 +25°C° 0.3 mm 1 m/s 646 mmHg 62%
    14:00 +25°C° 0.4 mm 1 m/s 646 mmHg 66%
    15:00 +24°C° 0.4 mm 1 m/s 645 mmHg 69%
    16:00 +23°C° 0.4 mm 1 m/s 645 mmHg 73%
    17:00 +22°C° 0.6 mm 1 m/s 645 mmHg 77%
    18:00 +21°C° 0.6 mm 1 m/s 645 mmHg 81%
    19:00 +20°C° 0.6 mm 1 m/s 645 mmHg 84%
    20:00 +20°C° 0.4 mm 1 m/s 646 mmHg 84%
    21:00 +19°C° 0.4 mm 1 m/s 646 mmHg 84%
    22:00 +19°C° 0.4 mm 1 m/s 646 mmHg 84%
    23:00 +19°C° 1 mm 1 m/s 646 mmHg 84%

    22 Octombrie, Luni

    Timp Temperatura Precipitaţii Vânt Presiune Umiditate
    00:00 +19°C° 1 mm 1 m/s 645 mmHg 85%
    01:00 +19°C° 1 mm 1 m/s 645 mmHg 85%
    02:00 +19°C° 1.1 mm 1 m/s 645 mmHg 85%
    03:00 +19°C° 1.1 mm 1 m/s 645 mmHg 86%
    04:00 +19°C° 1.1 mm 1 m/s 645 mmHg 86%
    05:00 +19°C° 1 mm 1 m/s 646 mmHg 84%
    06:00 +20°C° 1 mm 1 m/s 646 mmHg 82%
    07:00 +18°C° 1 mm 0 m/s 647 mmHg 80%
    08:00 +22°C° 0.9 mm 1 m/s 648 mmHg 75%
    09:00 +23°C° 0.9 mm 1 m/s 648 mmHg 70%
    10:00 +25°C° 0.9 mm 1 m/s 649 mmHg 64%
    11:00 +24°C° 0.7 mm 1 m/s 648 mmHg 66%
    12:00 +24°C° 0.7 mm 1 m/s 647 mmHg 67%
    13:00 +24°C° 0.7 mm 1 m/s 646 mmHg 68%
    14:00 +24°C° 0.8 mm 1 m/s 646 mmHg 72%
    15:00 +23°C° 0.8 mm 1 m/s 646 mmHg 75%
    16:00 +22°C° 0.8 mm 1 m/s 645 mmHg 78%
    17:00 +21°C° 1 mm 1 m/s 645 mmHg 82%
    18:00 +21°C° 1 mm 1 m/s 646 mmHg 85%
    19:00 +20°C° 1 mm 1 m/s 646 mmHg 88%
    20:00 +19°C° 1 mm 1 m/s 646 mmHg 88%
    21:00 +19°C° 1 mm 1 m/s 646 mmHg 87%
    22:00 +19°C° 1 mm 1 m/s 646 mmHg 87%
    23:00 +19°C° 1.1 mm 1 m/s 646 mmHg 87%

    23 Octombrie, Marţi

    Timp Temperatura Precipitaţii Vânt Presiune Umiditate
    00:00 +19°C° 1.1 mm 1 m/s 646 mmHg 87%
    01:00 +19°C° 1.1 mm 1 m/s 645 mmHg 87%
    02:00 +19°C° 0.7 mm 1 m/s 645 mmHg 86%
    03:00 +18°C° 0.7 mm 1 m/s 645 mmHg 85%
    04:00 +18°C° 0.7 mm 1 m/s 645 mmHg 85%
    05:00 +19°C° 0.4 mm 1 m/s 646 mmHg 82%
    06:00 +18°C° 0.4 mm 0 m/s 647 mmHg 80%
    07:00 +18°C° 0.4 mm 0 m/s 647 mmHg 78%
    08:00 +22°C° 0.1 mm 1 m/s 648 mmHg 71%
    09:00 +24°C° 0.1 mm 1 m/s 648 mmHg 65%
    10:00 +26°C° 0.1 mm 1 m/s 649 mmHg 58%
    11:00 +25°C° 0.3 mm 1 m/s 648 mmHg 61%
    12:00 +25°C° 0.3 mm 1 m/s 647 mmHg 64%
    13:00 +24°C° 0.3 mm 1 m/s 646 mmHg 67%
    14:00 +24°C° 0.5 mm 1 m/s 646 mmHg 70%
    15:00 +23°C° 0.5 mm 1 m/s 646 mmHg 72%
    16:00 +23°C° 0.5 mm 1 m/s 645 mmHg 75%
    17:00 +21°C° 0.7 mm 1 m/s 645 mmHg 79%
    18:00 +20°C° 0.7 mm 1 m/s 646 mmHg 84%
    19:00 +19°C° 0.7 mm 1 m/s 646 mmHg 88%
    20:00 +19°C° 0.7 mm 1 m/s 646 mmHg 88%
    21:00 +19°C° 0.7 mm 1 m/s 646 mmHg 88%
    22:00 +19°C° 0.7 mm 1 m/s 646 mmHg 88%
    23:00 +19°C° 0.7 mm 1 m/s 646 mmHg 88%
    Arată mai mult